| time (UTC) | temp C | wind direction | speed KPH | gust KPH | rain 1hr cm | rain 24hr cm | rain mn cm | humidity % | barometer mb |
| 20260502151907 | 11 | 354 | 4.8 | 4.8 | 0.00 | 0.25 | 0.25 | 80 | 1009.6 |
| 20260502151403 | 11 | 340 | 3.2 | 4.8 | 0.00 | 0.25 | 0.25 | 82 | 1009.6 |
| 20260502150901 | 11 | 337 | 3.2 | 4.8 | 0.00 | 0.25 | 0.25 | 84 | 1009.6 |
| 20260502150357 | 11 | 333 | 3.2 | 4.8 | 0.00 | 0.25 | 0.25 | 81 | 1009.6 |
| 20260502130745 | 10 | 355 | 4.8 | 4.8 | 0.00 | 0.25 | 0.25 | 91 | 1009.8 |
| 20260502130242 | 9 | 339 | 8.0 | 8.0 | 0.00 | 0.25 | 0.25 | 92 | 1010.1 |
| 20260502123729 | 9 | 348 | 0.0 | 3.2 | 0.00 | 0.25 | 0.25 | 97 | 1010.3 |
| 20260502123225 | 8 | 346 | 3.2 | 6.4 | 0.00 | 0.25 | 0.25 | 97 | 1010.4 |
| 20260502122722 | 8 | 330 | 3.2 | 4.8 | 0.00 | 0.25 | 0.25 | 97 | 1010.1 |
| 20260502122218 | 8 | 345 | 3.2 | 4.8 | 0.00 | 0.25 | 0.25 | 97 | 1010.0 |
| 20260502121717 | 8 | 338 | 3.2 | 3.2 | 0.00 | 0.25 | 0.25 | 97 | 1010.2 |
| 20260502121214 | 8 | 351 | 3.2 | 3.2 | 0.00 | 0.25 | 0.25 | 97 | 1010.3 |
| 20260502120710 | 8 | 339 | 1.6 | 3.2 | 0.00 | 0.25 | 0.25 | 97 | 1010.3 |
| 20260502120207 | 8 | 354 | 3.2 | 3.2 | 0.00 | 0.25 | 0.25 | 97 | 1010.4 |
| 20260502115705 | 8 | 8 | 0.0 | 3.2 | 0.00 | 0.25 | 0.25 | 97 | 1010.4 |
| 20260502115201 | 8 | 332 | 3.2 | 4.8 | 0.00 | 0.25 | 0.25 | 97 | 1010.2 |
| 20260502114657 | 8 | 339 | 3.2 | 4.8 | 0.00 | 0.25 | 0.25 | 97 | 1010.3 |
| 20260502114155 | 8 | 334 | 4.8 | 4.8 | 0.00 | 0.25 | 0.25 | 97 | 1010.1 |
| 20260502113652 | 8 | 329 | 1.6 | 3.2 | 0.00 | 0.25 | 0.25 | 97 | 1010.3 |
| 20260502113150 | 8 | 329 | 4.8 | 4.8 | 0.00 | 0.25 | 0.25 | 97 | 1010.4 |
| 20260502112647 | 8 | 342 | 4.8 | 4.8 | 0.00 | 0.25 | 0.25 | 97 | 1010.2 |
| 20260502112145 | 8 | 341 | 4.8 | 4.8 | 0.00 | 0.25 | 0.25 | 97 | 1010.0 |
| 20260502111642 | 8 | 346 | 3.2 | 3.2 | 0.00 | 0.25 | 0.25 | 97 | 1010.4 |
| 20260502111139 | 8 | 334 | 3.2 | 4.8 | 0.00 | 0.25 | 0.25 | 97 | 1010.3 |
| 20260502110637 | 8 | 354 | 3.2 | 3.2 | 0.00 | 0.25 | 0.25 | 97 | 1010.6 |
| 20260502110134 | 8 | 345 | 3.2 | 3.2 | 0.05 | 0.25 | 0.25 | 97 | 1010.4 |
| 20260502105632 | 8 | 352 | 3.2 | 4.8 | 0.30 | 0.25 | 0.25 | 97 | 1010.5 |
| 20260502105129 | 8 | 357 | 3.2 | 4.8 | 0.53 | 0.23 | 0.23 | 97 | 1010.4 |
| 20260502104626 | 8 | 2 | 4.8 | 4.8 | 0.36 | 0.20 | 0.20 | 97 | 1010.7 |
| 20260502104123 | 8 | 342 | 3.2 | 4.8 | 0.13 | 0.15 | 0.15 | 97 | 1010.5 |
| 20260502103621 | 8 | 355 | 3.2 | 3.2 | 0.05 | 0.13 | 0.13 | 97 | 1010.4 |
| 20260502103119 | 8 | 348 | 4.8 | 4.8 | 0.00 | 0.13 | 0.13 | 97 | 1010.3 |
| 20260502102615 | 8 | 328 | 3.2 | 3.2 | 0.00 | 0.13 | 0.13 | 96 | 1010.2 |
| 20260502102112 | 8 | 348 | 3.2 | 4.8 | 0.00 | 0.13 | 0.13 | 96 | 1009.9 |
| 20260502101610 | 8 | 328 | 3.2 | 3.2 | 0.00 | 0.13 | 0.13 | 96 | 1009.7 |
| 20260502101108 | 8 | 355 | 4.8 | 4.8 | 0.00 | 0.13 | 0.13 | 96 | 1009.9 |
| 20260502100606 | 8 | 346 | 3.2 | 3.2 | 0.05 | 0.13 | 0.13 | 96 | 1009.9 |
| 20260502100104 | 8 | 3 | 4.8 | 4.8 | 0.13 | 0.13 | 0.13 | 96 | 1010.0 |
| 20260502091038 | 8 | 348 | 3.2 | 4.8 | 0.00 | 0.08 | 0.08 | 95 | 1009.8 |
| 20260502090535 | 8 | 337 | 3.2 | 4.8 | 0.05 | 0.08 | 0.08 | 95 | 1009.9 |
| 20260502071429 | 9 | 341 | 4.8 | 4.8 | 0.00 | 0.00 | 0.00 | 84 | 1009.2 |
| 20260502070927 | 9 | 349 | 3.2 | 3.2 | 0.00 | 0.00 | 0.00 | 83 | 1009.5 |
| 20260502070425 | 9 | 18 | 0.0 | 3.2 | 0.00 | 0.00 | 0.00 | 83 | 1009.4 |
| 20260502065924 | 9 | 351 | 3.2 | 3.2 | 0.00 | 0.00 | 0.00 | 82 | 1009.3 |
| 20260502065422 | 9 | 332 | 6.4 | 6.4 | 0.05 | 0.00 | 0.00 | 80 | 1009.5 |
| 20260502064920 | 10 | 336 | 1.6 | 4.8 | 0.05 | 0.00 | 0.00 | 78 | 1009.4 |
| 20260502064417 | 10 | 341 | 3.2 | 4.8 | 0.00 | 0.00 | 0.00 | 78 | 1009.7 |
| 20260502063914 | 10 | 358 | 4.8 | 4.8 | 0.00 | 0.00 | 0.00 | 78 | 1009.7 |
| 20260502063412 | 10 | 24 | 0.0 | 3.2 | 0.00 | 0.00 | 0.00 | 77 | 1009.6 |
| 20260502062909 | 10 | 356 | 3.2 | 4.8 | 0.00 | 0.00 | 0.00 | 77 | 1009.4 |
| 20260502062406 | 10 | 346 | 6.4 | 8.0 | 0.00 | 0.00 | 0.00 | 77 | 1009.5 |
| 20260502061905 | 10 | 346 | 3.2 | 3.2 | 0.00 | 0.00 | 0.00 | 76 | 1009.8 |
| 20260502061403 | 10 | 336 | 3.2 | 4.8 | 0.00 | 0.00 | 0.00 | 77 | 1009.7 |
| 20260502060858 | 10 | 16 | 3.2 | 3.2 | 0.00 | 0.00 | 0.00 | 78 | 1009.6 |
| 20260502060353 | 10 | 12 | 3.2 | 3.2 | 0.00 | 0.00 | 0.00 | 77 | 1009.7 |
| 20260502055851 | 10 | 5 | 3.2 | 3.2 | 0.00 | 0.00 | 0.00 | 77 | 1009.6 |
| 20260502055349 | 10 | 4 | 1.6 | 3.2 | 0.00 | 0.00 | 0.00 | 77 | 1009.7 |
| 20260502054848 | 10 | 329 | 3.2 | 3.2 | 0.00 | 0.00 | 0.00 | 78 | 1009.8 |
| 20260502054345 | 10 | 355 | 3.2 | 3.2 | 0.00 | 0.00 | 0.00 | 77 | 1009.7 |
| 20260502053843 | 10 | 8 | 1.6 | 3.2 | 0.00 | 0.00 | 0.00 | 78 | 1009.6 |
| 20260502053340 | 10 | 359 | 3.2 | 3.2 | 0.00 | 0.00 | 0.00 | 77 | 1009.6 |
| 20260502052837 | 10 | 351 | 3.2 | 4.8 | 0.00 | 0.00 | 0.00 | 77 | 1009.5 |
| 20260502052335 | 10 | 342 | 4.8 | 6.4 | 0.00 | 0.00 | 0.00 | 76 | 1009.7 |
| 20260502051833 | 10 | 353 | 3.2 | 4.8 | 0.00 | 0.00 | 0.00 | 77 | 1009.8 |
| 20260502051331 | 10 | 339 | 3.2 | 3.2 | 0.00 | 0.00 | 0.00 | 76 | 1009.8 |
| 20260502050827 | 10 | 356 | 4.8 | 4.8 | 0.00 | 0.00 | 0.00 | 75 | 1009.9 |
| 20260502050324 | 10 | 2 | 4.8 | 4.8 | 0.00 | 0.00 | 0.00 | 76 | 1009.8 |
| 20260502045821 | 10 | 338 | 3.2 | 4.8 | 0.00 | 0.00 | 0.00 | 76 | 1010.1 |
| 20260502045317 | 10 | 331 | 4.8 | 4.8 | 0.00 | 0.00 | 0.00 | 76 | 1009.7 |
| 20260502044815 | 10 | 346 | 3.2 | 4.8 | 0.00 | 0.00 | 0.00 | 75 | 1009.9 |
| 20260502044311 | 10 | 338 | 4.8 | 4.8 | 0.00 | 0.00 | 0.00 | 74 | 1009.9 |
| 20260502043808 | 10 | 353 | 3.2 | 3.2 | 0.00 | 0.00 | 0.00 | 73 | 1010.0 |
| 20260502043306 | 10 | 356 | 4.8 | 4.8 | 0.00 | 0.00 | 0.00 | 73 | 1010.0 |
| 20260502042805 | 10 | 350 | 4.8 | 4.8 | 0.00 | 0.00 | 0.00 | 75 | 1009.8 |
| 20260502042305 | 10 | 345 | 3.2 | 3.2 | 0.00 | 0.00 | 0.00 | 75 | 1009.9 |
| 20260502041800 | 10 | 347 | 3.2 | 4.8 | 0.00 | 0.00 | 0.00 | 74 | 1009.8 |
| 20260502041257 | 10 | 352 | 3.2 | 4.8 | 0.00 | 0.00 | 0.00 | 74 | 1009.7 |
| 20260502040754 | 10 | 332 | 3.2 | 3.2 | 0.00 | 0.00 | 0.00 | 73 | 1009.6 |
| 20260502040251 | 10 | 349 | 3.2 | 4.8 | 0.00 | 0.00 | 0.00 | 74 | 1009.7 |
| 20260502035747 | 10 | 345 | 3.2 | 3.2 | 0.00 | 0.00 | 0.00 | 73 | 1009.6 |
| 20260502035244 | 10 | 352 | 3.2 | 4.8 | 0.00 | 0.00 | 0.00 | 72 | 1009.8 |
| 20260502034741 | 10 | 6 | 4.8 | 4.8 | 0.00 | 0.00 | 0.00 | 72 | 1010.0 |
| 20260502034239 | 10 | 350 | 3.2 | 4.8 | 0.00 | 0.00 | 0.00 | 72 | 1009.8 |
| 20260502033737 | 10 | 342 | 3.2 | 4.8 | 0.00 | 0.00 | 0.00 | 71 | 1009.8 |
| 20260502033235 | 10 | 341 | 4.8 | 4.8 | 0.00 | 0.00 | 0.00 | 70 | 1009.8 |
| 20260502032731 | 10 | 346 | 3.2 | 3.2 | 0.00 | 0.00 | 0.00 | 70 | 1009.7 |
| 20260502032227 | 10 | 354 | 3.2 | 4.8 | 0.00 | 0.00 | 0.00 | 70 | 1009.9 |
| 20260502031725 | 10 | 345 | 4.8 | 4.8 | 0.00 | 0.00 | 0.00 | 69 | 1010.0 |
| 20260502031223 | 10 | 358 | 3.2 | 4.8 | 0.00 | 0.00 | 0.00 | 69 | 1010.0 |
| 20260502030722 | 10 | 345 | 3.2 | 4.8 | 0.00 | 0.00 | 0.00 | 69 | 1009.9 |
| 20260502030219 | 10 | 340 | 3.2 | 3.2 | 0.00 | 0.00 | 0.00 | 69 | 1009.9 |
| 20260502025716 | 10 | 353 | 3.2 | 4.8 | 0.00 | 0.00 | 0.00 | 67 | 1010.1 |
| 20260502025214 | 10 | 339 | 3.2 | 3.2 | 0.00 | 0.00 | 0.00 | 67 | 1010.0 |
| 20260502024712 | 10 | 346 | 3.2 | 3.2 | 0.00 | 0.00 | 0.00 | 67 | 1010.1 |
| 20260502024209 | 10 | 346 | 3.2 | 3.2 | 0.00 | 0.00 | 0.00 | 67 | 1009.9 |
| 20260502023707 | 10 | 336 | 3.2 | 3.2 | 0.00 | 0.00 | 0.00 | 66 | 1009.8 |
| 20260502023204 | 11 | 331 | 3.2 | 3.2 | 0.00 | 0.00 | 0.00 | 65 | 1009.8 |
| 20260502022701 | 11 | 334 | 1.6 | 3.2 | 0.00 | 0.00 | 0.00 | 66 | 1009.8 |
| 20260502022158 | 11 | 333 | 1.6 | 3.2 | 0.00 | 0.00 | 0.00 | 66 | 1009.7 |
| 20260502021655 | 11 | 345 | 3.2 | 3.2 | 0.00 | 0.00 | 0.00 | 63 | 1009.8 |
| 20260502021153 | 11 | 324 | 1.6 | 3.2 | 0.00 | 0.00 | 0.00 | 63 | 1009.8 |
| 20260502020650 | 11 | 341 | 3.2 | 3.2 | 0.00 | 0.00 | 0.00 | 59 | 1009.9 |
| 20260502020146 | 11 | 328 | 3.2 | 4.8 | 0.00 | 0.00 | 0.00 | 61 | 1010.1 |
| 20260502015644 | 11 | 343 | 4.8 | 4.8 | 0.00 | 0.00 | 0.00 | 62 | 1009.9 |
| 20260502015140 | 11 | 338 | 4.8 | 4.8 | 0.00 | 0.00 | 0.00 | 65 | 1009.9 |
| 20260502014638 | 11 | 327 | 4.8 | 6.4 | 0.00 | 0.00 | 0.00 | 65 | 1009.8 |
| 20260502014135 | 11 | 340 | 4.8 | 4.8 | 0.00 | 0.00 | 0.00 | 64 | 1009.7 |
| 20260502013631 | 11 | 330 | 0.0 | 4.8 | 0.00 | 0.00 | 0.00 | 64 | 1009.5 |
| 20260502013126 | 11 | 353 | 1.6 | 4.8 | 0.00 | 0.00 | 0.00 | 63 | 1009.6 |
| 20260502012624 | 11 | 14 | 3.2 | 3.2 | 0.00 | 0.00 | 0.00 | 63 | 1009.4 |
| 20260502012122 | 11 | 10 | 1.6 | 3.2 | 0.00 | 0.00 | 0.00 | 64 | 1009.5 |
| 20260502011618 | 11 | 330 | 3.2 | 4.8 | 0.00 | 0.00 | 0.00 | 64 | 1009.5 |
| 20260502011114 | 11 | 359 | 1.6 | 3.2 | 0.00 | 0.00 | 0.00 | 67 | 1009.2 |
| 20260502010612 | 11 | 338 | 3.2 | 3.2 | 0.00 | 0.00 | 0.00 | 66 | 1009.3 |
| 20260502010108 | 11 | 356 | 3.2 | 3.2 | 0.00 | 0.00 | 0.00 | 63 | 1009.3 |
| 20260502005606 | 11 | 9 | 1.6 | 3.2 | 0.00 | 0.00 | 0.00 | 60 | 1009.1 |
| 20260502005104 | 11 | 6 | 3.2 | 3.2 | 0.00 | 0.00 | 0.00 | 57 | 1009.1 |
| 20260502004559 | 12 | 337 | 4.8 | 4.8 | 0.00 | 0.00 | 0.00 | 59 | 1009.1 |
| 20260502004056 | 12 | 349 | 3.2 | 4.8 | 0.00 | 0.00 | 0.00 | 57 | 1009.1 |
| 20260502003554 | 12 | 343 | 3.2 | 4.8 | 0.00 | 0.00 | 0.00 | 57 | 1008.9 |
| 20260502003051 | 12 | 331 | 4.8 | 6.4 | 0.00 | 0.00 | 0.00 | 56 | 1009.0 |
| 20260502002547 | 12 | 355 | 3.2 | 6.4 | 0.00 | 0.00 | 0.00 | 55 | 1008.8 |
| 20260502002044 | 12 | 354 | 4.8 | 6.4 | 0.00 | 0.00 | 0.00 | 53 | 1008.6 |
| 20260502001542 | 12 | 348 | 4.8 | 4.8 | 0.00 | 0.00 | 0.00 | 54 | 1008.5 |
| 20260502001039 | 12 | 342 | 3.2 | 4.8 | 0.00 | 0.00 | 0.00 | 53 | 1008.6 |
| 20260502000537 | 12 | 343 | 4.8 | 4.8 | 0.00 | 0.00 | 0.00 | 52 | 1008.7 |
| 20260502000034 | 13 | 348 | 4.8 | 4.8 | 0.00 | 0.00 | 0.00 | 52 | 1008.5 |
| 20260501235530 | 13 | 338 | 3.2 | 4.8 | 0.00 | 0.00 | 0.00 | 52 | 1008.5 |
| 20260501235026 | 13 | 345 | 3.2 | 4.8 | 0.00 | 0.00 | 0.00 | 53 | 1008.3 |
| 20260501234522 | 13 | 345 | 3.2 | 4.8 | 0.00 | 0.00 | 0.00 | 54 | 1008.3 |
| 20260501234020 | 13 | 342 | 3.2 | 3.2 | 0.00 | 0.00 | 0.00 | 51 | 1008.3 |
| 20260501233518 | 13 | 350 | 3.2 | 3.2 | 0.00 | 0.00 | 0.00 | 52 | 1008.2 |
| 20260501233014 | 13 | 340 | 3.2 | 4.8 | 0.00 | 0.00 | 0.00 | 51 | 1008.2 |
| 20260501232510 | 13 | 344 | 3.2 | 4.8 | 0.00 | 0.00 | 0.00 | 48 | 1008.0 |
| 20260501232008 | 13 | 353 | 3.2 | 4.8 | 0.00 | 0.00 | 0.00 | 49 | 1008.0 |
| 20260501231506 | 14 | 348 | 3.2 | 4.8 | 0.00 | 0.00 | 0.00 | 48 | 1007.9 |
| 20260501231004 | 14 | 340 | 3.2 | 4.8 | 0.00 | 0.00 | 0.00 | 48 | 1007.8 |
| 20260501230502 | 15 | 351 | 3.2 | 4.8 | 0.00 | 0.00 | 0.00 | 46 | 1008.0 |
| 20260501225959 | 15 | 345 | 3.2 | 3.2 | 0.00 | 0.00 | 0.00 | 44 | 1007.8 |
| 20260501225457 | 15 | 341 | 4.8 | 6.4 | 0.00 | 0.00 | 0.00 | 41 | 1007.8 |
| 20260501224952 | 15 | 346 | 3.2 | 4.8 | 0.00 | 0.00 | 0.00 | 43 | 1008.0 |
| 20260501224450 | 15 | 350 | 3.2 | 3.2 | 0.00 | 0.00 | 0.00 | 40 | 1007.8 |
| 20260501223947 | 15 | 349 | 3.2 | 4.8 | 0.00 | 0.00 | 0.00 | 40 | 1007.7 |
| 20260501223443 | 15 | 339 | 3.2 | 4.8 | 0.00 | 0.00 | 0.00 | 37 | 1007.7 |
| 20260501222939 | 15 | 348 | 3.2 | 4.8 | 0.00 | 0.00 | 0.00 | 39 | 1007.7 |
| 20260501222437 | 16 | 340 | 4.8 | 4.8 | 0.00 | 0.00 | 0.00 | 35 | 1007.7 |
| 20260501221933 | 16 | 355 | 3.2 | 8.0 | 0.00 | 0.00 | 0.00 | 34 | 1007.7 |
| 20260501221430 | 16 | 41 | 3.2 | 4.8 | 0.00 | 0.00 | 0.00 | 34 | 1007.5 |
| 20260501220928 | 16 | 8 | 3.2 | 4.8 | 0.00 | 0.00 | 0.00 | 36 | 1007.7 |
| 20260501220425 | 16 | 3 | 4.8 | 6.4 | 0.00 | 0.00 | 0.00 | 32 | 1007.7 |
| 20260501215921 | 16 | 325 | 0.0 | 3.2 | 0.00 | 0.00 | 0.00 | 34 | 1007.5 |
| 20260501215418 | 16 | 352 | 3.2 | 3.2 | 0.00 | 0.00 | 0.00 | 34 | 1007.7 |
| 20260501214914 | 16 | 108 | 0.0 | 6.4 | 0.00 | 0.00 | 0.00 | 33 | 1007.7 |
| 20260501214409 | 16 | 72 | 1.6 | 6.4 | 0.00 | 0.00 | 0.00 | 31 | 1007.8 |
| 20260501213904 | 16 | 20 | 1.6 | 4.8 | 0.00 | 0.00 | 0.00 | 31 | 1007.6 |
| 20260501213402 | 16 | 358 | 1.6 | 6.4 | 0.00 | 0.00 | 0.00 | 33 | 1007.9 |
| 20260501212857 | 16 | 318 | 6.4 | 8.0 | 0.00 | 0.00 | 0.00 | 34 | 1007.7 |
| 20260501212354 | 16 | 33 | 4.8 | 6.4 | 0.00 | 0.00 | 0.00 | 31 | 1007.8 |
| 20260501211851 | 16 | 359 | 0.0 | 6.4 | 0.00 | 0.00 | 0.00 | 34 | 1007.9 |
| 20260501211348 | 17 | 334 | 6.4 | 6.4 | 0.00 | 0.00 | 0.00 | 33 | 1007.7 |
| 20260501210846 | 17 | 7 | 6.4 | 6.4 | 0.00 | 0.00 | 0.00 | 31 | 1007.8 |
| 20260501210343 | 17 | 1 | 3.2 | 4.8 | 0.00 | 0.00 | 0.00 | 31 | 1007.9 |
| 20260501205839 | 17 | 346 | 4.8 | 4.8 | 0.00 | 0.00 | 0.00 | 29 | 1007.7 |
| 20260501205336 | 17 | 9 | 6.4 | 9.7 | 0.00 | 0.00 | 0.00 | 32 | 1007.7 |
| 20260501204832 | 17 | 349 | 4.8 | 6.4 | 0.00 | 0.00 | 0.00 | 32 | 1007.7 |
| 20260501204329 | 17 | 333 | 3.2 | 6.4 | 0.00 | 0.00 | 0.00 | 32 | 1007.5 |
| 20260501203825 | 18 | 12 | 4.8 | 6.4 | 0.00 | 0.00 | 0.00 | 29 | 1007.6 |
| 20260501203323 | 18 | 347 | 0.0 | 4.8 | 0.00 | 0.00 | 0.00 | 31 | 1007.7 |
| 20260501202820 | 18 | 351 | 8.0 | 8.0 | 0.00 | 0.00 | 0.00 | 29 | 1007.9 |
| 20260501202317 | 17 | 51 | 1.6 | 8.0 | 0.00 | 0.00 | 0.00 | 31 | 1007.8 |
| 20260501201814 | 17 | 342 | 6.4 | 6.4 | 0.00 | 0.00 | 0.00 | 30 | 1007.7 |
| 20260501201310 | 17 | 110 | 3.2 | 6.4 | 0.00 | 0.00 | 0.00 | 30 | 1007.6 |
| 20260501200807 | 17 | 53 | 3.2 | 4.8 | 0.00 | 0.00 | 0.00 | 32 | 1007.7 |
| 20260501200304 | 17 | 137 | 3.2 | 6.4 | 0.00 | 0.00 | 0.00 | 30 | 1007.8 |
| 20260501195802 | 18 | 175 | 0.0 | 9.7 | 0.00 | 0.00 | 0.00 | 31 | 1007.8 |
| 20260501195257 | 18 | 228 | 3.2 | 4.8 | 0.00 | 0.00 | 0.00 | 32 | 1007.9 |
| 20260501194754 | 18 | 333 | 3.2 | 8.0 | 0.00 | 0.00 | 0.00 | 29 | 1008.0 |
| 20260501194249 | 18 | 336 | 6.4 | 6.4 | 0.00 | 0.00 | 0.00 | 30 | 1007.9 |
| 20260501193746 | 17 | 351 | 6.4 | 8.0 | 0.00 | 0.00 | 0.00 | 31 | 1007.6 |
| 20260501193245 | 17 | 8 | 8.0 | 11.3 | 0.00 | 0.00 | 0.00 | 31 | 1007.9 |
| 20260501192742 | 18 | 353 | 3.2 | 6.4 | 0.00 | 0.00 | 0.00 | 28 | 1007.9 |
| 20260501192238 | 17 | 20 | 4.8 | 8.0 | 0.00 | 0.00 | 0.00 | 29 | 1007.9 |
| 20260501191736 | 18 | 114 | 8.0 | 9.7 | 0.00 | 0.00 | 0.00 | 28 | 1008.0 |
| 20260501191233 | 18 | 348 | 8.0 | 8.0 | 0.00 | 0.00 | 0.00 | 30 | 1008.1 |
| 20260501190729 | 18 | 26 | 3.2 | 6.4 | 0.00 | 0.00 | 0.00 | 29 | 1008.0 |
| 20260501190225 | 18 | 343 | 4.8 | 9.7 | 0.00 | 0.00 | 0.00 | 32 | 1008.2 |
| 20260501185721 | 17 | 28 | 3.2 | 14.5 | 0.00 | 0.00 | 0.00 | 29 | 1008.4 |
| 20260501185217 | 17 | 26 | 4.8 | 6.4 | 0.00 | 0.00 | 0.00 | 30 | 1008.5 |
| 20260501184713 | 18 | 28 | 6.4 | 9.7 | 0.00 | 0.00 | 0.00 | 29 | 1008.5 |
| 20260501184209 | 17 | 4 | 4.8 | 8.0 | 0.00 | 0.00 | 0.00 | 34 | 1008.4 |
| 20260501183705 | 17 | 107 | 4.8 | 4.8 | 0.00 | 0.00 | 0.00 | 31 | 1008.4 |
| 20260501183202 | 17 | 20 | 3.2 | 9.7 | 0.00 | 0.00 | 0.00 | 31 | 1008.5 |
| 20260501182658 | 17 | 38 | 6.4 | 8.0 | 0.00 | 0.00 | 0.00 | 32 | 1008.5 |
| 20260501182155 | 17 | 130 | 3.2 | 4.8 | 0.00 | 0.00 | 0.00 | 32 | 1008.6 |
| 20260501181652 | 16 | 353 | 3.2 | 8.0 | 0.00 | 0.00 | 0.00 | 34 | 1008.8 |
| 20260501181149 | 16 | 6 | 3.2 | 6.4 | 0.00 | 0.00 | 0.00 | 33 | 1008.7 |
| 20260501180647 | 17 | 351 | 3.2 | 3.2 | 0.00 | 0.00 | 0.00 | 35 | 1008.7 |
| 20260501180143 | 17 | 6 | 4.8 | 6.4 | 0.00 | 0.00 | 0.00 | 32 | 1008.8 |
| 20260501175640 | 17 | 27 | 9.7 | 9.7 | 0.00 | 0.00 | 0.00 | 30 | 1008.7 |
| 20260501175137 | 17 | 30 | 6.4 | 8.0 | 0.00 | 0.00 | 0.00 | 33 | 1008.8 |
| 20260501174634 | 17 | 296 | 6.4 | 8.0 | 0.00 | 0.00 | 0.00 | 30 | 1008.8 |
| 20260501174131 | 16 | 358 | 4.8 | 8.0 | 0.00 | 0.00 | 0.00 | 36 | 1008.8 |
| 20260501173629 | 16 | 344 | 8.0 | 8.0 | 0.00 | 0.00 | 0.00 | 33 | 1008.9 |
| 20260501173125 | 16 | 136 | 3.2 | 6.4 | 0.00 | 0.00 | 0.00 | 32 | 1008.8 |
| 20260501172621 | 16 | 78 | 4.8 | 11.3 | 0.00 | 0.00 | 0.00 | 31 | 1008.7 |
| 20260501172116 | 16 | 347 | 1.6 | 4.8 | 0.00 | 0.00 | 0.00 | 33 | 1008.9 |
| 20260501171613 | 16 | 3 | 6.4 | 9.7 | 0.00 | 0.00 | 0.00 | 35 | 1009.0 |
| 20260501171110 | 16 | 350 | 4.8 | 8.0 | 0.00 | 0.00 | 0.00 | 31 | 1008.9 |
| 20260501170607 | 16 | 306 | 4.8 | 6.4 | 0.00 | 0.00 | 0.00 | 32 | 1008.9 |
| 20260501170103 | 16 | 0 | 4.8 | 8.0 | 0.00 | 0.00 | 0.00 | 29 | 1008.9 |
| 20260501165601 | 16 | 334 | 4.8 | 8.0 | 0.00 | 0.00 | 0.00 | 32 | 1009.1 |
| 20260501165058 | 16 | 36 | 3.2 | 9.7 | 0.00 | 0.00 | 0.00 | 35 | 1009.1 |
| 20260501164556 | 16 | 48 | 6.4 | 8.0 | 0.00 | 0.00 | 0.00 | 35 | 1009.0 |
| 20260501164052 | 16 | 307 | 1.6 | 9.7 | 0.00 | 0.00 | 0.00 | 32 | 1009.1 |
| 20260501163549 | 16 | 339 | 6.4 | 9.7 | 0.00 | 0.00 | 0.00 | 33 | 1009.1 |
| 20260501163046 | 16 | 341 | 11.3 | 11.3 | 0.00 | 0.00 | 0.00 | 36 | 1009.0 |
| 20260501162542 | 15 | 335 | 6.4 | 8.0 | 0.00 | 0.00 | 0.00 | 37 | 1009.2 |
| 20260501162039 | 15 | 11 | 3.2 | 8.0 | 0.00 | 0.00 | 0.00 | 36 | 1009.2 |
| 20260501161537 | 15 | 86 | 3.2 | 6.4 | 0.00 | 0.00 | 0.00 | 37 | 1009.1 |
| 20260501161033 | 15 | 3 | 9.7 | 12.9 | 0.00 | 0.00 | 0.00 | 33 | 1009.2 |
| 20260501160530 | 15 | 349 | 4.8 | 9.7 | 0.00 | 0.00 | 0.00 | 41 | 1009.2 |
| 20260501160027 | 14 | 342 | 6.4 | 8.0 | 0.00 | 0.00 | 0.00 | 39 | 1009.5 |
| 20260501155523 | 13 | 12 | 4.8 | 6.4 | 0.00 | 0.00 | 0.00 | 38 | 1009.5 |
| 20260501155021 | 13 | 16 | 3.2 | 11.3 | 0.00 | 0.00 | 0.00 | 38 | 1009.5 |
| 20260501154518 | 14 | 59 | 6.4 | 9.7 | 0.00 | 0.00 | 0.00 | 40 | 1009.5 |
| 20260501154015 | 14 | 326 | 4.8 | 8.0 | 0.00 | 0.00 | 0.00 | 40 | 1009.5 |
| 20260501153513 | 13 | 339 | 6.4 | 9.7 | 0.00 | 0.00 | 0.00 | 39 | 1009.7 |